* Astronomy

Members Login
Username 
 
Password 
    Remember Me  
Post Info TOPIC: Asteroid 2011 MM4


L

Posts: 131433
Date:
Asteroid 2011 MM4
Permalink  
 


Orbital elements:
2011 MM4
Epoch 2012 Mar. 14.0 TT = JDT 2456000.5                 MPC
M  26.35419              (2000.0)            P               Q
n   0.01003467     Peri.    7.41807     +0.19308785     -0.20351872
a  21.2879601      Node   282.57678     -0.94315303     -0.30820761
e   0.4755674      Incl.  100.44169     -0.27051700     +0.92929446
P  98.22           H    9.3           G   0.15           U   2

MPEC 2012 - J51



__________________


L

Posts: 131433
Date:
Permalink  
 

Orbital elements:
2011 MM4
Epoch 2011 June 28.0 TT = JDT 2455740.5                 MPC
M 314.90353              (2000.0)            P               Q
n   0.01532040     Peri.  165.20119     -0.18383127     +0.11491448
a  16.0554533      Node   278.53313     +0.77137456     +0.63242945
e   0.4253032      Incl.   99.19686     +0.60925147     -0.76604677
P  64.3            H    9.4           G   0.15
From 73 observations 2011 June 24-July 1.

MPEC 2011 - N02



__________________
Page 1 of 1  sorted by
Quick Reply

Please log in to post quick replies.



Create your own FREE Forum
Report Abuse
Powered by ActiveBoard